#timestamp,LO_Frequency,Hit,StdDev 
1710770415.9,286047014.7,Y
1710770435.7,286047004.2,P
1710770455.5,286047005.5,N
1710770475.4,286046998.5,N
1710770495.2,286046992.7,N
1710770515.1,286046987.9,N
1710770516.0,286046987.9,N
1710770535.8,286046982.6,N
1710770555.6,286046979.4,N
1710770575.5,286046977.3,N
1710770595.3,286046978.6,N
1710770615.2,286046984.7,N
1710770635.9,286046985.9,N
1710770655.7,286046982.2,N
1710770675.6,286046983.5,N
1710770695.4,286046982.4,N
1710770715.2,286046982.9,N
1710770735.1,286046983.9,N
1710770736.0,286046983.9,N
1710770755.8,286046986.0,N
1710770775.7,286046982.3,N
1710770795.5,286046982.8,N
1710770815.3,286046983.3,N
1710770835.2,286046981.1,N
1710770855.9,286046980.9,N
1710770875.7,286046984.1,N
1710770895.6,286046986.6,N
1710770915.4,286046988.6,N
1710770935.3,286046995.5,N
1710770955.1,286046999.4,N
1710770956.0,286046999.4,N
1710770975.8,286046996.6,N
1710770995.7,286046996.9,N
1710771015.5,286047011.9,N
1710771035.4,286046991.9,N
1710771055.2,286046990.4,N
1710771075.0,286046988.5,N
1710771075.9,286046988.5,N
1710771095.8,286046986.7,N
1710771115.6,286046983.7,N
1710771135.5,286046987.0,N
1710771155.3,286046992.5,N
1710771175.1,286046994.0,N
1710771195.9,286046992.6,N
1710771215.7,286046989.5,N
1710771235.5,286046986.3,N
1710771255.4,286046979.3,Y
1710771275.2,286046988.1,P
1710771295.1,286046986.1,P
1710771296.0,286046986.1,P
1710771315.8,286046987.2,Y
1710771335.6,286047004.9,P
1710771355.5,286047009.8,N
1710771375.3,286047015.1,N
1710771395.1,286047019.6,N
1710771415.9,286047020.7,N
1710771435.7,286047023.0,N
1710771455.6,286047025.2,N
1710771475.4,286047024.6,N
1710771495.2,286047026.8,N
1710771515.1,286047029.4,N
1710771516.0,286047029.4,N
1710771535.8,286047029.1,N
1710771555.7,286047031.2,N
1710771575.5,286047030.1,N
1710771595.3,286047033.1,N
1710771615.2,286047032.8,N
1710771635.0,286047030.2,N
1710771635.9,286047030.2,N
1710771655.8,286047030.4,N
1710771675.6,286047030.1,N
1710771695.4,286047034.8,Y
1710771715.3,286047010.0,P
1710771735.1,286047010.7,N
1710771755.8,286047008.0,N
1710771775.7,286047011.2,N
1710771795.5,286047013.1,N
1710771815.4,286047012.5,N
1710771835.2,286047014.7,Y
1710771855.0,286047000.4,P
1710771855.9,286047000.4,N
1710771875.8,286046999.4,N
1710771895.6,286046999.4,N
1710771915.5,286046995.0,N
1710771935.3,286046996.3,N
1710771955.2,286046993.7,N
1710771975.9,286046996.1,N
1710771995.7,286046993.9,N
1710772015.6,286046997.8,N
1710772035.4,286046999.1,N
1710772055.3,286046996.3,N
1710772075.1,286046993.8,N
1710772095.9,286046994.8,N
1710772115.7,286046990.4,N
1710772135.5,286046992.2,N
1710772155.4,286046992.9,N
1710772175.2,286046990.6,N
1710772195.0,286046989.7,N
1710772195.9,286046989.7,N
1710772215.8,286046989.8,N
1710772235.6,286046986.6,N
1710772255.5,286046984.7,N
1710772275.3,286046984.6,N
1710772295.1,286046986.8,N
1710772315.9,286046986.5,N
1710772335.7,286046986.1,N
1710772355.5,286046986.4,N
1710772375.4,286046984.6,N
1710772395.2,286046980.9,Y
1710772415.1,286046985.9,P
1710772416.0,286046985.9,P
1710772435.8,286046987.3,P
1710772455.6,286046987.0,Y
1710772475.5,286047002.0,P
1710772495.3,286047002.1,N
1710772515.2,286047001.4,N
1710772535.9,286047000.4,N
1710772555.7,286047002.3,N
1710772575.6,286047000.1,N
1710772595.4,286047000.3,N
1710772615.2,286047000.1,N
1710772635.1,286047003.5,N
1710772636.0,286047003.5,N
1710772655.8,286047003.7,N
1710772675.7,286047002.1,N
1710772695.5,286047004.0,N
1710772715.3,286047007.2,N
1710772735.2,286047004.5,N
1710772755.0,286047005.6,N
1710772755.9,286047005.6,N
1710772775.8,286047001.3,N
1710772795.6,286047003.2,N
1710772815.4,286047001.0,N
1710772835.3,286046998.8,N
1710772855.1,286046994.9,N
1710772875.8,286046999.2,N
1710772895.7,286046996.6,N
1710772915.5,286046998.5,N
1710772935.4,286046999.2,N
1710772955.2,286046994.9,N
1710772975.0,286046995.7,N
1710772975.9,286046995.7,N
1710772995.8,286046995.8,N
1710773015.6,286046993.7,N
1710773035.4,286046994.1,N
1710773055.3,286046996.3,N
1710773075.1,286046994.8,N
1710773095.9,286046992.2,N
1710773115.7,286046994.4,N
1710773135.5,286046991.7,N
1710773155.4,286046989.4,N
1710773175.2,286046986.6,N
1710773195.0,286046986.6,N
1710773196.0,286046986.6,N
1710773215.8,286046983.7,N
1710773235.6,286046985.3,N
1710773255.5,286046986.0,N
1710773275.3,286046987.4,N
1710773295.1,286046989.5,N
1710773315.9,286046985.9,N
1710773335.7,286046984.1,N
1710773355.6,286046986.2,N
1710773375.4,286046988.8,N
1710773395.2,286046992.7,N
1710773415.1,286046992.2,N
1710773416.0,286046992.2,N
1710773435.8,286046993.2,N
1710773455.6,286046989.9,N
1710773475.5,286046988.3,N
1710773495.3,286046984.0,Y
1710773515.2,286046996.0,P
1710773535.9,286046995.1,N
1710773555.7,286046993.3,N
1710773575.6,286046996.3,N
1710773595.4,286046991.7,Y
1710773615.2,286046996.9,P
1710773635.1,286046998.1,N
1710773636.0,286046998.1,N
1710773655.8,286046998.2,N
1710773675.7,286046998.3,N
1710773695.5,286047002.8,N
1710773715.3,286047000.0,N
1710773735.2,286047002.2,N
1710773755.0,286047004.3,N
1710773755.9,286047004.3,N
1710773775.8,286047002.3,N
1710773795.6,286047002.5,N
1710773815.4,286047004.1,N
1710773835.3,286047005.3,N
1710773855.1,286047003.4,N
1710773875.8,286047002.6,N
1710773895.7,286047000.5,N
1710773915.5,286046998.9,N
1710773935.3,286046997.9,N
1710773955.2,286046997.8,N
1710773975.0,286046999.4,N
1710773975.9,286046999.4,N
1710773995.8,286046998.4,N
